Weather History for Prairie Du Chien, WI

Change the Weather History Date:

Monday, March 24, 2014

  Actual Average Record
Temperature  
Mean Temperature 27 °F -  
Max Temperature 36 °F 48 °F 73 °F (1963)
Min Temperature 18 °F 26 °F -3 °F (1965)
Degree Days  
Heating Degree Days 38    
Moisture  
Dew Point 17 °F    
Average Humidity 66    
Maximum Humidity 85    
Minimum Humidity 46    
Precipitation  
Precipitation 0.00 in - - ()
Sea Level Pressure  
Sea Level Pressure 30.25 in    
Wind  
Wind Speed 4 mph (WSW)    
Max Wind Speed 21 mph    
Max Gust Speed 31 mph    
Visibility 10 miles    
Events Snow    
Averages and records for this station are not official NWS values.
T = Trace of Precipitation, MM = Missing Value Source: NWS Daily Summary

Daily Weather History Graph

Daily Weather History Graph

Search for Another Location

Airport:

Trip Planner

Search our weather history database for the weather conditions in past years. The results will help you decide how hot, cold, wet, or windy it might be!

Date:

Astronomy

Mar. 24, 2014 Rise Set
Actual Time 7:00 AM CDT 7:21 PM CDT
Civil Twilight 6:32 AM CDT 7:49 PM CDT
Nautical Twilight 5:58 AM CDT 8:23 PM CDT
Astronomical Twilight 5:24 AM CDT 8:57 PM CDT
Moon 2:39 AM CDT (3/24) 12:39 PM CDT (3/24)
Length of Visible Light 13h 17m
Length of Day
12h 20m
Last Quarter, 43% of the Moon is Illuminated
Mar 24
Last Quarter
Mar 30
New
Apr 7
First Quarter
Apr 15
Full
Apr 22
Last Quarter

Hourly Weather History & Observations

Time (CDT) Temp. Windchill Dew Point Humidity Pressure Visibility Wind Dir Wind Speed Gust Speed Precip Events Conditions
12:15 AM 18.9 °F - 10.8 °F 71% 30.39 in 10.0 mi Calm Calm - N/A   Clear
12:35 AM 19.2 °F - 11.7 °F 72% 30.39 in 10.0 mi Calm Calm - N/A   Clear
12:55 AM 19.6 °F - 10.9 °F 69% 30.39 in 10.0 mi Calm Calm - N/A   Scattered Clouds
1:15 AM 19.8 °F - 10.9 °F 69% 30.39 in 10.0 mi Calm Calm - N/A   Scattered Clouds
1:35 AM 19.9 °F - 11.5 °F 70% 30.39 in 10.0 mi Calm Calm - N/A   Mostly Cloudy
1:55 AM 19.9 °F - 11.7 °F 70% 30.39 in 10.0 mi Calm Calm - N/A   Overcast
2:15 AM 19.9 °F - 12.9 °F 74% 30.39 in 10.0 mi Calm Calm - N/A   Mostly Cloudy
2:35 AM 19.9 °F - 12.9 °F 74% 30.39 in 10.0 mi Calm Calm - N/A   Mostly Cloudy
2:55 AM 20.1 °F - 13.1 °F 74% 30.38 in 10.0 mi Calm Calm - N/A   Mostly Cloudy
3:15 AM 20.1 °F - 13.5 °F 75% 30.37 in 10.0 mi Calm Calm - N/A   Overcast
3:35 AM 20.3 °F - 12.0 °F 70% 30.37 in 10.0 mi Calm Calm - N/A   Overcast
3:55 AM 20.3 °F 15.4 °F 12.6 °F 72% 30.35 in 10.0 mi East 3.5 mph - N/A   Overcast
4:15 AM 20.3 °F - 12.2 °F 71% 30.36 in 10.0 mi Calm Calm - N/A   Overcast
4:35 AM 20.7 °F - 13.6 °F 74% 30.36 in 10.0 mi Calm Calm - N/A   Overcast
4:55 AM 21.2 °F - 13.1 °F 71% 30.36 in 10.0 mi Calm Calm - N/A   Overcast
5:15 AM 21.2 °F 16.4 °F 12.9 °F 70% 30.36 in 10.0 mi SSW 3.5 mph - N/A   Overcast
5:35 AM 21.2 °F 14.9 °F 12.6 °F 69% 30.35 in 10.0 mi SW 4.6 mph - N/A   Overcast
5:55 AM 21.2 °F 16.4 °F 12.2 °F 68% 30.35 in 10.0 mi SW 3.5 mph - N/A   Overcast
6:15 AM 21.2 °F - 11.7 °F 67% 30.34 in 10.0 mi Calm Calm - N/A   Overcast
6:35 AM 21.4 °F 15.1 °F 12.0 °F 67% 30.34 in 10.0 mi SSW 4.6 mph - N/A   Overcast
6:55 AM 21.2 °F 16.4 °F 11.7 °F 67% 30.34 in 10.0 mi SSW 3.5 mph - N/A   Overcast
7:15 AM 21.0 °F 16.2 °F 11.5 °F 67% 30.34 in 10.0 mi SW 3.5 mph - N/A   Scattered Clouds
7:35 AM 21.2 °F 16.4 °F 12.2 °F 68% 30.34 in 10.0 mi SSW 3.5 mph - N/A   Clear
7:55 AM 21.9 °F 15.7 °F 13.1 °F 69% 30.34 in 10.0 mi SSW 4.6 mph - N/A   Clear
8:15 AM 22.3 °F 14.9 °F 13.6 °F 69% 30.35 in 10.0 mi SW 5.8 mph - N/A   Mostly Cloudy
8:35 AM 23.2 °F 16.0 °F 15.1 °F 71% 30.34 in 10.0 mi SSW 5.8 mph - N/A   Mostly Cloudy
8:55 AM 23.9 °F 15.8 °F 15.3 °F 70% 30.34 in 10.0 mi SSW 6.9 mph - N/A   Overcast
9:15 AM 24.8 °F 19.1 °F 16.2 °F 70% 30.33 in 10.0 mi SSW 4.6 mph - N/A   Mostly Cloudy
9:35 AM 26.1 °F 21.9 °F 16.7 °F 68% 30.32 in 10.0 mi SSW 3.5 mph - N/A   Scattered Clouds
9:55 AM 27.3 °F - 17.1 °F 65% 30.31 in 10.0 mi Calm Calm - N/A   Clear
10:15 AM 28.4 °F 23.3 °F 16.3 °F 61% 30.31 in 10.0 mi SSW 4.6 mph - N/A   Clear
10:35 AM 29.5 °F 25.9 °F 15.6 °F 56% 30.31 in 10.0 mi SW 3.5 mph - N/A   Clear
10:55 AM 29.8 °F 23.9 °F 15.3 °F 55% 30.30 in 10.0 mi WSW 5.8 mph - N/A   Mostly Cloudy
11:15 AM 30.2 °F - 14.7 °F 53% 30.29 in 10.0 mi Calm Calm - N/A   Mostly Cloudy
11:35 AM 32.0 °F 26.4 °F 13.5 °F 46% 30.29 in 10.0 mi SSW 5.8 mph - N/A   Scattered Clouds
11:55 AM 31.1 °F - 13.5 °F 48% 30.28 in 10.0 mi Calm Calm - N/A   Mostly Cloudy
12:15 PM 31.8 °F 27.3 °F 14.7 °F 49% 30.28 in 10.0 mi SW 4.6 mph - N/A   Overcast
12:35 PM 32.2 °F 25.8 °F 15.4 °F 50% 30.27 in 10.0 mi West 6.9 mph - N/A   Overcast
1:15 PM 32.5 °F 24.8 °F 15.6 °F 50% 30.25 in 10.0 mi WSW 9.2 mph - N/A   Overcast
1:35 PM 32.7 °F 24.5 °F 17.4 °F 53% 30.24 in 10.0 mi WSW 10.4 mph - N/A   Overcast
1:55 PM 33.1 °F 24.9 °F 18.3 °F 55% 30.23 in 10.0 mi SW 10.4 mph 17.3 mph N/A   Overcast
2:15 PM 32.7 °F 26.4 °F 18.7 °F 56% 30.22 in 10.0 mi WSW 6.9 mph - N/A   Light Drizzle
2:35 PM 36.1 °F 27.3 °F 18.0 °F 48% 30.20 in 10.0 mi WSW 13.8 mph 19.6 mph N/A   Overcast
2:55 PM 33.8 °F 25.3 °F 16.9 °F 50% 30.19 in 10.0 mi WSW 11.5 mph 17.3 mph N/A   Overcast
3:15 PM 34.3 °F 25.0 °F 19.8 °F 55% 30.18 in 10.0 mi WSW 13.8 mph 17.3 mph N/A   Overcast
3:35 PM 33.6 °F 25.6 °F 21.7 °F 62% 30.17 in 10.0 mi SW 10.4 mph - N/A   Overcast
3:55 PM 33.8 °F 25.8 °F 21.0 °F 60% 30.16 in 10.0 mi WSW 10.4 mph 18.4 mph N/A   Overcast
4:15 PM 32.5 °F 26.2 °F 22.1 °F 65% 30.16 in 10.0 mi SW 6.9 mph - N/A   Overcast
4:35 PM 34.2 °F 25.7 °F 23.4 °F 65% 30.15 in 7.0 mi SW 11.5 mph 16.1 mph N/A   Overcast
4:55 PM 32.2 °F 24.4 °F 25.7 °F 77% 30.14 in 3.0 mi West 9.2 mph - N/A Snow Light Snow
5:15 PM 32.7 °F 26.4 °F 23.5 °F 69% 30.13 in 10.0 mi WSW 6.9 mph - N/A   Overcast
5:35 PM 32.4 °F 24.6 °F 23.2 °F 69% 30.13 in 10.0 mi WSW 9.2 mph 17.3 mph N/A   Overcast
5:55 PM 32.7 °F 25.7 °F 23.4 °F 68% 30.12 in 10.0 mi WSW 8.1 mph - N/A   Overcast
6:15 PM 32.5 °F 24.2 °F 22.5 °F 66% 30.12 in 10.0 mi WSW 10.4 mph - N/A   Mostly Cloudy
6:35 PM 32.4 °F 24.6 °F 22.1 °F 66% 30.11 in 10.0 mi WSW 9.2 mph - N/A   Mostly Cloudy
6:55 PM 32.2 °F 22.3 °F 22.1 °F 66% 30.10 in 10.0 mi WSW 13.8 mph 18.4 mph N/A   Overcast
7:15 PM 32.2 °F 23.2 °F 22.1 °F 66% 30.09 in 10.0 mi WSW 11.5 mph 20.7 mph N/A   Overcast
7:35 PM 32.0 °F 23.0 °F 22.8 °F 69% 30.09 in 10.0 mi WSW 11.5 mph - N/A Snow Light Snow
7:55 PM 31.1 °F 18.6 °F 25.2 °F 79% 30.10 in 1.2 mi West 20.7 mph 31.1 mph N/A Snow Light Snow
8:15 PM 28.8 °F 22.6 °F 24.8 °F 85% 30.10 in 10.0 mi West 5.8 mph - N/A Snow Light Snow
8:35 PM 28.6 °F 20.7 °F 23.4 °F 81% 30.10 in 10.0 mi West 8.1 mph - N/A   Mostly Cloudy
8:55 PM 28.6 °F 20.7 °F 23.4 °F 81% 30.10 in 10.0 mi West 8.1 mph - N/A   Mostly Cloudy
9:15 PM 29.3 °F 20.8 °F 22.5 °F 76% 30.10 in 10.0 mi West 9.2 mph 16.1 mph N/A   Mostly Cloudy
9:35 PM 29.3 °F 19.6 °F 21.6 °F 73% 30.10 in 10.0 mi West 11.5 mph - N/A   Mostly Cloudy
9:55 PM 28.6 °F 17.7 °F 20.3 °F 71% 30.10 in 10.0 mi West 13.8 mph - N/A   Mostly Cloudy
10:15 PM 28.0 °F 17.5 °F 19.6 °F 71% 30.10 in 10.0 mi WNW 12.7 mph - N/A   Mostly Cloudy
10:35 PM 27.9 °F 17.3 °F 18.7 °F 68% 30.10 in 10.0 mi West 12.7 mph 17.3 mph N/A   Scattered Clouds
10:55 PM 27.5 °F 16.3 °F 16.9 °F 64% 30.10 in 10.0 mi West 13.8 mph 18.4 mph N/A   Clear
11:15 PM 27.1 °F 14.1 °F 14.0 °F 58% 30.10 in 10.0 mi WNW 18.4 mph 25.3 mph N/A   Clear
11:35 PM 26.4 °F 15.5 °F 12.4 °F 55% 30.11 in 10.0 mi NW 12.7 mph 24.2 mph N/A   Clear
11:55 PM 25.7 °F 15.7 °F 10.8 °F 53% 30.11 in 10.0 mi WNW 10.4 mph 21.9 mph N/A   Clear